M0ZPG Weather Reports


Display with metric or nautical units.
time (UTC)temp
F
wind
direction
speed
MPH
gust
MPH
rain 1hr
in
rain 24hr
in
rain mn
in
humidity
%
barometer
mb
20260509021805 48 65 0.0 1.0 0.00 0.00 0.00 88 1017.1
20260509020903 48 65 0.0 2.0 0.00 0.00 0.00 88 1016.9
20260509020009 48 66 0.0 1.0 0.00 0.00 0.00 87 1017.0
20260509015403 48 66 0.0 1.0 0.00 0.00 0.00 87 1017.0
20260509014505 49 0 0.0 0.0 0.00 0.00 0.00 86 1017.0
20260509013603 49 65 0.0 1.0 0.00 0.00 0.00 85 1017.0
20260509012916 49 65 0.0 1.0 0.00 0.00 0.00 85 1017.1
20260509011804 50 65 0.0 3.0 0.00 0.00 0.00 85 1017.1
20260509010905 50 64 0.0 3.0 0.00 0.00 0.00 85 1017.2
20260509010005 50 64 0.0 3.0 0.00 0.00 0.00 84 1017.1
20260509005405 50 64 0.0 1.0 0.00 0.00 0.00 84 1017.2
20260509004504 50 65 0.0 1.0 0.00 0.00 0.00 83 1017.3
20260509003605 50 64 0.0 3.0 0.00 0.00 0.00 83 1017.2
20260509002706 50 71 1.0 4.0 0.00 0.00 0.00 83 1017.1
20260509002014 50 81 1.0 4.0 0.00 0.00 0.00 83 1017.1
20260509001116 50 82 1.0 2.0 0.00 0.00 0.00 82 1017.2
20260509000003 51 82 0.0 3.0 0.00 0.00 0.00 82 1017.2
20260508235405 51 82 0.0 3.0 0.00 0.00 0.00 82 1017.2
20260508234718 51 82 0.0 2.0 0.00 0.00 0.00 81 1017.3
20260508233603 51 82 0.0 2.0 0.00 0.00 0.00 80 1017.2
20260508232705 52 82 0.0 2.0 0.00 0.00 0.00 80 1017.2
20260508231803 52 82 1.0 3.0 0.00 0.00 0.00 80 1017.3
20260508230905 52 82 1.0 4.0 0.00 0.00 0.00 80 1017.3
20260508230214 52 82 0.0 2.0 0.00 0.00 0.00 79 1017.2
20260508225403 52 81 1.0 3.0 0.00 0.00 0.00 79 1017.2
20260508224503 52 81 0.0 3.0 0.00 0.00 0.00 78 1017.2
20260508223605 52 81 0.0 1.0 0.00 0.00 0.00 77 1017.3
20260508222704 53 81 0.0 2.0 0.00 0.00 0.00 77 1017.4
20260508221803 53 81 0.0 3.0 0.00 0.00 0.00 76 1017.3
20260508220905 53 81 0.0 1.0 0.00 0.00 0.00 75 1017.3
20260508220003 54 81 0.0 1.0 0.00 0.00 0.00 74 1017.4
20260508215403 54 81 0.0 1.0 0.00 0.00 0.00 74 1017.3
20260508214504 54 81 1.0 3.0 0.00 0.00 0.00 74 1017.3
20260508213603 55 82 0.0 4.0 0.00 0.00 0.00 73 1017.3
20260508212924 55 82 1.0 4.0 0.00 0.00 0.00 73 1017.3
20260508212016 55 83 1.0 3.0 0.00 0.00 0.00 72 1017.3
20260508210904 56 83 1.0 4.0 0.00 0.00 0.00 71 1017.2
20260508210003 56 80 1.0 4.0 0.00 0.00 0.00 71 1017.1
20260508205405 56 77 1.0 4.0 0.00 0.00 0.00 70 1017.0
20260508203603 57 96 1.0 4.0 0.00 0.00 0.00 69 1016.9
20260508202914 57 99 1.0 4.0 0.00 0.00 0.00 68 1016.9
20260508201803 57 87 1.0 5.0 0.00 0.00 0.00 67 1016.9
20260508200903 58 87 1.0 6.0 0.00 0.00 0.00 66 1016.9
20260508200216 58 83 2.0 7.0 0.00 0.00 0.00 65 1016.7
20260508195406 58 80 1.0 7.0 0.00 0.00 0.00 65 1016.7
20260508193605 59 77 2.0 4.0 0.00 0.00 0.00 63 1016.5
20260508192703 60 93 2.0 7.0 0.00 0.00 0.00 62 1016.4
20260508192017 60 91 3.0 9.0 0.00 0.00 0.00 61 1016.4
20260508190904 60 85 3.0 10.0 0.00 0.00 0.00 61 1016.1
20260508190005 61 93 3.0 9.0 0.00 0.00 0.00 62 1016.0
20260508185406 61 90 3.0 9.0 0.00 0.00 0.00 61 1016.0
20260508184506 62 78 3.0 9.0 0.00 0.00 0.00 62 1015.9
20260508183603 62 82 2.0 7.0 0.00 0.00 0.00 62 1015.9
20260508182705 62 79 2.0 7.0 0.00 0.00 0.00 61 1015.7
20260508181805 62 92 3.0 8.0 0.00 0.00 0.00 61 1015.5
20260508180905 63 82 2.0 10.0 0.00 0.00 0.00 61 1015.4
20260508175406 63 91 2.0 9.0 0.00 0.00 0.00 61 1015.3
20260508174716 63 94 2.0 8.0 0.00 0.00 0.00 61 1015.4
20260508173605 64 82 2.0 9.0 0.00 0.00 0.00 61 1015.4
20260508172916 64 89 3.0 7.0 0.00 0.00 0.00 60 1015.4
20260508171803 64 106 2.0 8.0 0.00 0.00 0.00 61 1015.4
20260508170905 64 79 3.0 10.0 0.00 0.00 0.00 60 1015.4
20260508170004 64 80 2.0 7.0 0.00 0.00 0.00 60 1015.4
20260508165405 64 94 1.0 7.0 0.00 0.00 0.00 60 1015.4
20260508163605 64 85 2.0 8.0 0.00 0.00 0.00 60 1015.3
20260508162703 64 89 2.0 8.0 0.00 0.00 0.00 60 1015.2
20260508161805 64 79 2.0 9.0 0.00 0.00 0.00 60 1015.2
20260508160906 64 93 2.0 9.0 0.00 0.00 0.00 60 1015.2
20260508160006 64 88 2.0 8.0 0.00 0.00 0.00 59 1015.1
20260508155403 64 82 2.0 7.0 0.00 0.00 0.00 60 1015.1
20260508154503 64 96 2.0 6.0 0.00 0.00 0.00 59 1015.1
20260508153606 64 87 3.0 9.0 0.00 0.00 0.00 59 1015.2
20260508152917 64 94 2.0 6.0 0.00 0.00 0.00 59 1015.1
20260508151804 65 73 2.0 8.0 0.00 0.00 0.00 57 1015.2
20260508150903 65 63 2.0 7.0 0.00 0.00 0.00 58 1015.2
20260508150004 65 56 2.0 6.0 0.00 0.00 0.00 58 1015.2
20260508145616 65 38 2.0 5.0 0.00 0.00 0.00 58 1015.2
20260508144503 65 70 2.0 7.0 0.00 0.00 0.00 57 1015.3
20260508143603 65 69 1.0 7.0 0.00 0.00 0.00 57 1015.3
20260508142703 64 83 1.0 6.0 0.00 0.00 0.00 56 1015.3
20260508141803 65 86 1.0 7.0 0.00 0.00 0.00 55 1015.3
20260508141113 65 70 2.0 7.0 0.00 0.00 0.00 55 1015.3
20260508140006 65 35 1.0 6.0 0.00 0.00 0.00 56 1015.2
20260508135405 64 64 1.0 6.0 0.00 0.00 0.00 55 1015.2
20260508134503 64 117 1.0 4.0 0.00 0.00 0.00 56 1015.3
20260508133816 63 117 1.0 4.0 0.00 0.00 0.00 56 1015.2
20260508132703 63 130 1.0 5.0 0.00 0.00 0.00 56 1015.4
20260508132016 63 148 1.0 5.0 0.00 0.00 0.00 55 1015.5
20260508130903 64 149 0.0 5.0 0.00 0.00 0.00 56 1015.7
20260508130005 64 149 0.0 2.0 0.00 0.00 0.00 55 1015.8
20260508125617 63 149 0.0 3.0 0.00 0.00 0.00 55 1015.9
20260508124505 63 155 1.0 5.0 0.00 0.00 0.00 55 1015.8
20260508123817 62 159 1.0 4.0 0.00 0.00 0.00 57 1015.9
20260508122703 62 161 1.0 4.0 0.00 0.00 0.00 58 1015.9
20260508121803 61 151 1.0 4.0 0.00 0.00 0.00 59 1015.9
20260508121114 61 142 1.0 4.0 0.00 0.00 0.00 59 1015.9
20260508120005 61 144 1.0 4.0 0.00 0.00 0.00 60 1016.0
20260508115404 61 136 1.0 4.0 0.00 0.00 0.00 61 1016.0
20260508114503 61 129 1.0 3.0 0.00 0.00 0.00 62 1016.0
20260508113605 61 139 1.0 4.0 0.00 0.00 0.00 61 1016.0
20260508112705 61 136 1.0 2.0 0.00 0.00 0.00 61 1016.0
20260508111803 61 119 1.0 6.0 0.00 0.00 0.00 60 1016.0
20260508110903 61 114 2.0 6.0 0.00 0.00 0.00 61 1015.9
20260508110004 61 125 1.0 6.0 0.00 0.00 0.00 59 1016.0
20260508105403 61 102 2.0 6.0 0.00 0.00 0.00 61 1015.9
20260508104506 61 126 1.0 7.0 0.00 0.00 0.00 61 1015.9
20260508103818 61 162 2.0 5.0 0.00 0.00 0.00 59 1016.0
20260508102705 61 127 1.0 3.0 0.00 0.00 0.00 60 1015.9
20260508101805 61 111 2.0 7.0 0.00 0.00 0.00 59 1016.0
20260508100904 62 154 1.0 5.0 0.00 0.00 0.00 60 1016.0
20260508100212 62 148 1.0 4.0 0.00 0.00 0.00 60 1016.0
20260508095403 62 88 2.0 7.0 0.00 0.00 0.00 61 1015.9
20260508094505 62 93 2.0 8.0 0.00 0.00 0.00 62 1015.9
20260508093605 62 92 2.0 8.0 0.00 0.00 0.00 61 1015.8
20260508092703 62 99 2.0 7.0 0.00 0.00 0.00 60 1015.9
20260508091803 62 114 2.0 5.0 0.00 0.00 0.00 63 1015.7
20260508090905 61 129 2.0 8.0 0.00 0.00 0.00 63 1015.9
20260508090218 61 120 2.0 6.0 0.00 0.00 0.00 64 1015.8
20260508085403 61 108 1.0 6.0 0.00 0.00 0.00 68 1015.8
20260508084717 60 90 2.0 6.0 0.00 0.00 0.00 70 1015.9
20260508083603 59 99 2.0 7.0 0.00 0.00 0.00 71 1015.8
20260508082704 58 76 2.0 8.0 0.00 0.00 0.00 72 1015.7
20260508081803 58 90 2.0 8.0 0.00 0.00 0.00 74 1015.7
20260508081116 57 83 2.0 8.0 0.00 0.00 0.00 74 1015.8
20260508080005 56 88 2.0 7.0 0.00 0.00 0.00 76 1015.7
20260508075405 55 82 2.0 7.0 0.00 0.00 0.00 78 1015.7
20260508074505 54 91 1.0 4.0 0.00 0.00 0.00 80 1015.5
20260508073603 53 93 2.0 8.0 0.00 0.00 0.00 80 1015.5
20260508072917 53 91 2.0 8.0 0.00 0.00 0.00 81 1015.5
20260508071805 52 85 1.0 5.0 0.00 0.00 0.00 83 1015.4
20260508071117 52 87 1.0 6.0 0.00 0.00 0.00 83 1015.4
20260508070005 51 79 1.0 3.0 0.00 0.00 0.00 84 1015.5
20260508065403 50 81 1.0 3.0 0.00 0.00 0.00 84 1015.5
20260508064505 50 86 0.0 3.0 0.00 0.00 0.00 85 1015.4
20260508063603 49 87 1.0 3.0 0.00 0.00 0.00 86 1015.4
20260508062918 49 88 1.0 3.0 0.00 0.00 0.00 86 1015.4
20260508061804 49 89 1.0 3.0 0.00 0.00 0.00 86 1015.4
20260508061118 49 92 1.0 3.0 0.00 0.00 0.00 87 1015.4
20260508060005 48 92 0.0 2.0 0.00 0.00 0.00 88 1015.3
20260508055405 48 93 0.0 2.0 0.00 0.00 0.00 88 1015.2
20260508054504 48 93 1.0 3.0 0.00 0.00 0.00 89 1015.1
20260508053605 47 95 1.0 4.0 0.00 0.00 0.00 89 1015.1
20260508052705 47 96 0.0 2.0 0.00 0.00 0.00 90 1015.0
20260508051804 47 96 0.0 2.0 0.00 0.00 0.00 90 1015.1
20260508050905 47 96 0.0 2.0 0.00 0.00 0.00 90 1015.0
20260508050005 46 96 1.0 3.0 0.00 0.00 0.00 91 1015.0
20260508045405 46 96 1.0 3.0 0.00 0.00 0.00 91 1014.9
20260508044503 46 96 0.0 2.0 0.00 0.00 0.00 91 1014.8
20260508043603 45 96 0.0 3.0 0.00 0.00 0.00 91 1014.7
20260508042919 45 97 0.0 3.0 0.00 0.00 0.00 92 1014.8
20260508041805 45 96 0.0 1.0 0.00 0.00 0.00 91 1014.8
20260508040903 44 0 0.0 0.0 0.00 0.00 0.00 91 1014.7
20260508040004 45 0 0.0 0.0 0.00 0.00 0.00 91 1014.7
20260508035618 45 0 0.0 0.0 0.00 0.00 0.00 91 1014.7
20260508034505 44 0 0.0 0.0 0.00 0.00 0.00 91 1014.6
20260508033604 44 0 0.0 0.0 0.00 0.00 0.00 91 1014.8
20260508032920 45 97 0.0 1.0 0.00 0.00 0.00 91 1014.7
20260508031803 45 0 0.0 0.0 0.00 0.00 0.00 90 1014.7
20260508030903 45 0 0.0 0.0 0.00 0.00 0.00 90 1014.8
20260508030005 45 0 0.0 0.0 0.00 0.00 0.00 91 1014.8
20260508025405 45 96 0.0 1.0 0.00 0.00 0.00 91 1014.8
20260508024503 44 96 0.0 1.0 0.00 0.00 0.00 90 1014.8
20260508023605 44 0 0.0 0.0 0.00 0.00 0.00 90 1014.9
20260508022703 44 0 0.0 0.0 0.00 0.00 0.00 89 1014.9